• In Moldova, Republic
  • List of Countries
  • For 7 days
  • Water Temperature
  • Satellite Maps
  • Weather Map
  • Weather Widgets
  • user-avatar
    Login

    Hourly Weather Buda-Koshelovo

    Today, 21 October, Sunday

    Time Temperature Precipitation Wind Pressure Humidity
    00:00 +6°C° 0 mm 2 mps 753 mmHg 77%
    01:00 +5°C° 0 mm 2 mps 753 mmHg 78%
    02:00 +5°C° 0 mm 2 mps 753 mmHg 80%
    03:00 +5°C° 0 mm 2 mps 753 mmHg 81%
    04:00 +4°C° 0 mm 2 mps 753 mmHg 83%
    05:00 +4°C° 0 mm 2 mps 753 mmHg 84%
    06:00 +4°C° 0 mm 2 mps 753 mmHg 82%
    07:00 +5°C° 0 mm 2 mps 754 mmHg 81%
    08:00 +5°C° 0 mm 2 mps 754 mmHg 79%
    09:00 +5°C° 0 mm 3 mps 754 mmHg 72%
    10:00 +8°C° 0 mm 3 mps 755 mmHg 65%
    11:00 +10°C° 0 mm 3 mps 755 mmHg 58%
    12:00 +10°C° 0 mm 3 mps 755 mmHg 56%
    13:00 +11°C° 0 mm 3 mps 755 mmHg 53%
    14:00 +11°C° 0 mm 3 mps 755 mmHg 51%
    15:00 +10°C° 0 mm 2 mps 755 mmHg 56%
    16:00 +9°C° 0 mm 2 mps 755 mmHg 62%
    17:00 +7°C° 0 mm 2 mps 755 mmHg 67%
    18:00 +7°C° 0 mm 2 mps 755 mmHg 70%
    19:00 +6°C° 0 mm 2 mps 756 mmHg 74%
    20:00 +5°C° 0 mm 2 mps 756 mmHg 77%
    21:00 +5°C° 0 mm 2 mps 756 mmHg 80%
    22:00 +4°C° 0 mm 2 mps 756 mmHg 82%
    23:00 +4°C° 0 mm 2 mps 756 mmHg 84%

    Tomorrow, 22 October, Monday

    Time Temperature Precipitation Wind Pressure Humidity
    00:00 +5°C° 0 mm 1 mps 756 mmHg 86%
    01:00 +4°C° 0 mm 1 mps 756 mmHg 87%
    02:00 +4°C° 0 mm 1 mps 756 mmHg 89%
    03:00 +4°C° 0 mm 1 mps 756 mmHg 89%
    04:00 +4°C° 0 mm 1 mps 756 mmHg 89%
    05:00 +4°C° 0 mm 1 mps 756 mmHg 90%
    06:00 +4°C° 0 mm 1 mps 756 mmHg 88%
    07:00 +4°C° 0 mm 1 mps 756 mmHg 86%
    08:00 +5°C° 0 mm 1 mps 756 mmHg 84%
    09:00 +6°C° 0 mm 1 mps 756 mmHg 76%
    10:00 +7°C° 0 mm 0 mps 755 mmHg 68%
    11:00 +9°C° 0 mm 0 mps 755 mmHg 59%
    12:00 +11°C° 0 mm 1 mps 755 mmHg 56%
    13:00 +11°C° 0 mm 1 mps 754 mmHg 53%
    14:00 +12°C° 0 mm 1 mps 753 mmHg 49%
    15:00 +10°C° 0 mm 1 mps 753 mmHg 54%
    16:00 +9°C° 0 mm 1 mps 753 mmHg 58%
    17:00 +8°C° 0 mm 1 mps 752 mmHg 63%
    18:00 +7°C° 0 mm 1 mps 752 mmHg 65%
    19:00 +7°C° 0 mm 1 mps 752 mmHg 67%
    20:00 +5°C° 0 mm 2 mps 752 mmHg 69%
    21:00 +5°C° 0 mm 2 mps 751 mmHg 71%
    22:00 +4°C° 0 mm 2 mps 751 mmHg 74%
    23:00 +4°C° 0 mm 2 mps 750 mmHg 76%

    Day after tomorrow, 23 October, Tuesday

    Time Temperature Precipitation Wind Pressure Humidity
    00:00 +4°C° 0 mm 2 mps 750 mmHg 79%
    01:00 +4°C° 0 mm 2 mps 749 mmHg 82%
    02:00 +2°C° 0 mm 3 mps 749 mmHg 85%
    03:00 +2°C° 0 mm 3 mps 748 mmHg 87%
    04:00 +2°C° 0 mm 3 mps 747 mmHg 89%
    05:00 +2°C° 0 mm 3 mps 747 mmHg 92%
    06:00 +2°C° 0.3 mm 3 mps 747 mmHg 91%
    07:00 +3°C° 0.3 mm 3 mps 746 mmHg 91%
    08:00 +3°C° 0.3 mm 3 mps 746 mmHg 91%
    09:00 +4°C° 0.2 mm 3 mps 746 mmHg 88%
    10:00 +5°C° 0.2 mm 4 mps 746 mmHg 85%
    11:00 +6°C° 0.2 mm 4 mps 745 mmHg 82%
    12:00 +7°C° 0 mm 4 mps 745 mmHg 75%
    13:00 +8°C° 0 mm 3 mps 744 mmHg 68%
    14:00 +9°C° 0 mm 3 mps 744 mmHg 61%
    15:00 +8°C° 0 mm 3 mps 743 mmHg 64%
    16:00 +7°C° 0 mm 3 mps 743 mmHg 66%
    17:00 +6°C° 0 mm 2 mps 742 mmHg 69%
    18:00 +4°C° 0 mm 3 mps 741 mmHg 70%
    19:00 +4°C° 0 mm 3 mps 740 mmHg 71%
    20:00 +3°C° 0 mm 3 mps 739 mmHg 72%
    21:00 +3°C° 0 mm 4 mps 738 mmHg 73%
    22:00 +3°C° 0 mm 5 mps 737 mmHg 73%
    23:00 +3°C° 0 mm 5 mps 736 mmHg 73%

    24 October, Wednesday

    Time Temperature Precipitation Wind Pressure Humidity
    00:00 +3°C° 0.2 mm 6 mps 735 mmHg 75%
    01:00 +3°C° 0.2 mm 7 mps 733 mmHg 77%
    02:00 +3°C° 0.2 mm 7 mps 732 mmHg 79%
    03:00 +3°C° 0.4 mm 7 mps 730 mmHg 80%
    04:00 +3°C° 0.4 mm 7 mps 729 mmHg 81%
    05:00 +4°C° 0.4 mm 7 mps 727 mmHg 82%
    06:00 +4°C° 0.5 mm 7 mps 726 mmHg 84%
    07:00 +4°C° 0.5 mm 7 mps 725 mmHg 85%
    08:00 +4°C° 0.5 mm 7 mps 724 mmHg 86%
    09:00 +5°C° 0.5 mm 6 mps 724 mmHg 84%
    10:00 +5°C° 0.5 mm 6 mps 724 mmHg 83%
    11:00 +5°C° 0.5 mm 6 mps 724 mmHg 81%
    12:00 +5°C° 0.8 mm 7 mps 724 mmHg 80%
    13:00 +4°C° 0.8 mm 7 mps 725 mmHg 79%
    14:00 +2°C° 0.8 mm 8 mps 725 mmHg 78%
    15:00 +3°C° 0.5 mm 7 mps 725 mmHg 77%
    16:00 +3°C° 0.5 mm 7 mps 726 mmHg 76%
    17:00 +3°C° 0.5 mm 6 mps 726 mmHg 76%
    18:00 +3°C° 0 mm 6 mps 726 mmHg 77%
    19:00 +2°C° 0 mm 5 mps 726 mmHg 79%
    20:00 +2°C° 0 mm 5 mps 727 mmHg 81%
    21:00 +3°C° 0 mm 4 mps 727 mmHg 83%
    22:00 +1°C° 0 mm 4 mps 727 mmHg 85%
    23:00 +1°C° 0 mm 4 mps 727 mmHg 88%

    25 October, Thursday

    Time Temperature Precipitation Wind Pressure Humidity
    00:00 +2°C° 0 mm 3 mps 727 mmHg 89%
    01:00 +2°C° 0 mm 3 mps 727 mmHg 90%
    02:00 +1°C° 0 mm 3 mps 727 mmHg 91%
    03:00 +1°C° 0.3 mm 4 mps 728 mmHg 91%
    04:00 +1°C° 0.3 mm 4 mps 728 mmHg 91%
    05:00 +3°C° 0.3 mm 4 mps 728 mmHg 90%
    06:00 +2°C° 0.5 mm 5 mps 728 mmHg 88%
    07:00 +3°C° 0.5 mm 5 mps 729 mmHg 86%
    08:00 +3°C° 0.5 mm 6 mps 729 mmHg 84%
    09:00 +4°C° 0.2 mm 6 mps 730 mmHg 81%
    10:00 +4°C° 0.2 mm 6 mps 730 mmHg 78%
    11:00 +4°C° 0.2 mm 7 mps 731 mmHg 75%
    12:00 +4°C° 0.2 mm 7 mps 731 mmHg 74%
    13:00 +4°C° 0.2 mm 7 mps 731 mmHg 73%
    14:00 +4°C° 0.2 mm 7 mps 732 mmHg 73%
    15:00 +4°C° 0.1 mm 7 mps 732 mmHg 74%
    16:00 +4°C° 0.1 mm 6 mps 733 mmHg 75%
    17:00 +3°C° 0.1 mm 6 mps 734 mmHg 77%
    18:00 +3°C° 0.2 mm 6 mps 734 mmHg 77%
    19:00 +3°C° 0.2 mm 5 mps 735 mmHg 77%
    20:00 +2°C° 0.2 mm 5 mps 735 mmHg 78%
    21:00 +2°C° 0 mm 5 mps 736 mmHg 80%
    22:00 +1°C° 0 mm 4 mps 736 mmHg 82%
    23:00 +2°C° 0 mm 3 mps 736 mmHg 84%

    26 October, Friday

    Time Temperature Precipitation Wind Pressure Humidity
    00:00 +1°C° 0 mm 3 mps 737 mmHg 86%
    01:00 +1°C° 0 mm 3 mps 737 mmHg 88%
    02:00 0°C° 0 mm 3 mps 737 mmHg 90%
    03:00 0°C° 0 mm 3 mps 738 mmHg 91%
    04:00 0°C° 0 mm 3 mps 738 mmHg 91%
    05:00 0°C° 0 mm 3 mps 738 mmHg 92%
    06:00 0°C° 0 mm 3 mps 739 mmHg 91%
    07:00 +1°C° 0 mm 3 mps 739 mmHg 91%
    08:00 +1°C° 0 mm 3 mps 739 mmHg 90%
    09:00 +3°C° 0 mm 3 mps 739 mmHg 86%
    10:00 +4°C° 0 mm 4 mps 740 mmHg 81%
    11:00 +5°C° 0 mm 4 mps 740 mmHg 76%
    12:00 +6°C° 0 mm 4 mps 740 mmHg 75%
    13:00 +6°C° 0 mm 5 mps 740 mmHg 73%
    14:00 +7°C° 0 mm 5 mps 739 mmHg 71%
    15:00 +6°C° 0 mm 4 mps 740 mmHg 76%
    16:00 +5°C° 0 mm 3 mps 740 mmHg 81%
    17:00 +4°C° 0 mm 3 mps 740 mmHg 86%
    18:00 +4°C° 0 mm 3 mps 740 mmHg 87%
    19:00 +5°C° 0 mm 3 mps 740 mmHg 87%
    20:00 +6°C° 0 mm 2 mps 740 mmHg 88%
    21:00 +5°C° 0 mm 3 mps 740 mmHg 89%
    22:00 +5°C° 0 mm 3 mps 740 mmHg 91%
    23:00 +5°C° 0 mm 4 mps 740 mmHg 93%
    Show more